STARLINK-2496 (48486 NORAD) Tracking and Keplerian Element Data

This shows tracking and keplerian element data for the satellite.

Feedback or suggestion? Click here.




ElementValue
Catalog48486
NameSTARLINK-2496
Epoch Orbit1247
Epoch Day210.34912998
Epoch Year2021
RAAN202.9194
Inclination53.0521
Eccentricity0.0001507
Argument of Perigee62.8365
Mean Anonmoly297.2778
Mean Motion15.06382604
Decay Rate4.649E-05
L11 48486U 21040BL 21210.34912998 .00004649 00000-0 33096-3 0 9995
L22 48486 53.0521 202.9194 0001507 62.8365 297.2778 15.06382604 12479

Live tracking and technical data element details for STARLINK-2496 (NORAD 48486). STARLINK-2496 can be tracked NOW for your location showing map with azimuth and elevation plus other details from your city location.

Track the satellite on the map from your city or location and see movement details for azimuth, elevation, latitude, longitude, range, height, and movement on the map or in text.







IsCatalogInMostPopularTable: catalog: 48486, numindb: 31
Update: records affected: 1



GetName: 48486 STARLINK-2496

Hit Count: updated at: Sat, 31 Jul 2021 14:34:59 GMT